{"data":{"norad_id":64442,"epoch":"2026-09-20T08:55:41.779776Z","epoch_age_seconds":145432,"freshness":"FRESH","line1":"1 64442U 25130E   26263.37201134  .00021105  00000+0  63336-3 0  9993","line2":"2 64442  53.1584 260.4456 0001212  76.9338 283.1800 15.34432067 70562","mean_motion":15.34432067,"eccentricity":0.0001212,"inclination_deg":53.1584,"raan_deg":260.4456,"arg_perigee_deg":76.9338,"mean_anomaly_deg":283.18,"bstar":0.00063336,"rev_number":7056,"period_min":93.845796824057,"perigee_km":461.77883369938,"apogee_km":463.4370302709,"semimajor_km":6840.7449319851,"source":"CELESTRAK","updated_at":"2026-09-21T09:00:35.352748Z"}}